Location: *
(45.5667°S, 177.5167°W)
Time: 06:51:55
(UTC+00:00)

AQUARIUS - Visible Passes

Search period start: 06 October 2022 00:00
Search period end: 16 October 2022 00:00
Orbit: 648 x 651 km, 98.0° (Epoch: 05 October)

Date Brightness Start Highest point End Pass type
(mag) Time Alt. Az. Time Alt. Az. Time Alt. Az.
06 Oct 6.6 07:22:00 10° S 07:25:48 26° WSW 07:29:33 10° WNW visible
07 Oct 7.5 07:49:13 10° SSW 07:51:55 16° WSW 07:54:36 10° W visible
07 Oct 8.0 15:39:35 10° ESE 15:40:19 10° ESE 15:41:03 10° SE visible
08 Oct 4.7 06:37:35 10° S 06:42:09 67° WSW 06:46:38 10° NNW visible
08 Oct 7.4 16:03:21 10° ENE 16:06:21 18° ESE 16:09:22 10° SSE visible
09 Oct 5.9 07:04:13 10° S 07:08:25 37° WSW 07:12:35 10° NW visible
09 Oct 6.6 16:28:34 10° NE 16:32:29 29° ESE 16:36:26 10° S visible
10 Oct 7.0 07:31:06 10° SSW 07:34:36 22° WSW 07:38:04 10° WNW visible
11 Oct 7.7 07:58:34 10° SSW 08:00:40 13° WSW 08:02:46 10° W visible
11 Oct 7.7 15:47:09 10° E 15:49:03 12° ESE 15:50:57 10° SSE visible
12 Oct 5.1 06:46:30 10° S 06:50:58 55° WSW 06:55:24 10° NNW visible
12 Oct 7.2 16:11:44 10° ENE 16:15:06 21° ESE 16:18:30 10° SSE visible
13 Oct 6.4 07:13:11 10° S 07:17:13 31° WSW 07:21:11 10° NW visible
14 Oct 7.3 07:40:13 10° SSW 07:43:20 19° WSW 07:46:27 10° WNW visible
15 Oct 7.9 08:08:11 10° SW 08:09:22 11° WSW 08:10:33 10° WSW visible
15 Oct 7.6 15:55:13 10° E 15:57:45 15° ESE 16:00:18 10° SSE visible
